FW1140 Weather Reports


Display with metric or nautical units.
time (UTC)temp
F
wind
direction
speed
MPH
gust
MPH
rain 1hr
in
rain 24hr
in
rain mn
in
humidity
%
barometer
mb
20260904123023 65 310 1.0 5.0 0.00 0.00 0.00 94 1006.6
20260904121538 64 338 2.0 7.0 0.00 0.00 0.00 94 1006.4
20260904114517 65 252 3.0 7.0 0.00 0.00 0.00 93 1006.1
20260904113100 65 285 2.0 6.0 0.00 0.00 0.00 93 1006.1
20260904111554 65 255 2.0 6.0 0.00 0.00 0.00 93 1006.0
20260904110036 65 294 1.0 5.0 0.00 0.00 0.00 92 1005.9
20260904104559 65 289 2.0 7.0 0.00 0.00 0.00 92 1005.9
20260904103015 65 291 2.0 7.0 0.00 0.00 0.00 91 1005.7
20260904101508 66 304 4.0 8.0 0.00 0.00 0.00 91 1005.6
20260904100058 66 285 3.0 8.0 0.00 0.00 0.00 91 1005.6
20260904094556 66 315 2.0 7.0 0.00 0.00 0.00 91 1005.5
20260904093049 66 301 3.0 8.0 0.00 0.00 0.00 90 1005.4
20260904091506 66 308 4.0 11.0 0.00 0.00 0.00 90 1005.2
20260904090037 67 305 5.0 9.0 0.00 0.00 0.00 90 1005.3
20260904084606 67 304 4.0 9.0 0.00 0.00 0.00 89 1005.3
20260904083011 67 304 4.0 10.0 0.00 0.00 0.00 88 1005.0
20260904081524 68 304 2.0 6.0 0.00 0.00 0.00 88 1004.9
20260904080027 69 300 2.0 5.0 0.00 0.00 0.00 87 1004.9
20260904074539 70 318 1.0 6.0 0.00 0.00 0.00 84 1004.7
20260904073056 73 317 2.0 9.0 0.00 0.00 0.00 81 1004.6
20260904071526 73 8 2.0 7.0 0.00 0.00 0.00 82 1004.1
20260904070056 74 213 4.0 9.0 0.00 0.00 0.00 81 1003.8
20260904064511 74 248 4.0 12.0 0.00 0.00 0.00 79 1003.6
20260904063102 75 217 5.0 12.0 0.00 0.00 0.00 78 1003.5
20260904061550 76 238 4.0 13.0 0.00 0.00 0.00 76 1003.3
20260904060051 77 263 6.0 12.0 0.00 0.00 0.00 75 1003.3
20260904054529 77 220 5.0 11.0 0.00 0.00 0.00 74 1003.1
20260904053101 78 243 7.0 14.0 0.00 0.00 0.00 73 1003.1
20260904051556 78 231 7.0 14.0 0.00 0.00 0.00 72 1002.9
20260904050053 78 212 4.0 9.0 0.00 0.00 0.00 72 1003.0
20260904044521 79 176 6.0 11.0 0.00 0.00 0.00 71 1002.9
20260904043020 78 229 4.0 8.0 0.00 0.00 0.00 72 1002.9
20260904041554 79 224 5.0 11.0 0.00 0.00 0.00 71 1002.9
20260904040014 79 192 5.0 10.0 0.00 0.00 0.00 70 1002.8
20260904034546 80 179 5.0 12.0 0.00 0.00 0.00 69 1002.7
20260904033010 80 208 5.0 11.0 0.00 0.00 0.00 70 1002.7
20260904031530 80 176 5.0 11.0 0.00 0.00 0.00 69 1002.6
20260904030115 79 134 5.0 11.0 0.00 0.00 0.00 70 1002.5
20260904024558 78 193 4.0 10.0 0.00 0.00 0.00 71 1002.5
20260904023030 78 243 4.0 9.0 0.00 0.00 0.00 71 1002.4
20260904021523 77 158 3.0 7.0 0.00 0.00 0.00 73 1002.1
20260904020049 77 205 4.0 8.0 0.00 0.00 0.00 73 1002.1
20260904014505 77 224 4.0 7.0 0.00 0.00 0.00 72 1001.8
20260904013049 77 178 3.0 7.0 0.00 0.00 0.00 71 1001.6
20260904011551 78 190 3.0 6.0 0.00 0.00 0.00 68 1001.6
20260904010026 80 205 4.0 7.0 0.00 0.00 0.00 64 1001.5
20260904004523 82 221 4.0 10.0 0.00 0.00 0.00 61 1001.4
20260904003049 83 158 4.0 10.0 0.00 0.00 0.00 59 1001.3
20260904001510 85 234 5.0 10.0 0.00 0.00 0.00 58 1001.3
20260904000038 87 190 5.0 12.0 0.00 0.00 0.00 56 1001.2
20260903234538 88 201 2.0 6.0 0.00 0.00 0.00 59 1001.1
20260903233003 89 179 3.0 7.0 0.00 0.00 0.00 55 1000.9
20260903231515 90 176 4.0 8.0 0.00 0.00 0.00 55 1000.8
20260903230028 91 209 5.0 11.0 0.00 0.00 0.00 54 1000.7
20260903224528 91 226 5.0 9.0 0.00 0.00 0.00 56 1000.7
20260903223057 92 225 5.0 11.0 0.00 0.00 0.00 55 1000.7
20260903221512 92 205 6.0 12.0 0.00 0.00 0.00 53 1000.5
20260903220015 93 193 5.0 10.0 0.00 0.00 0.00 53 1000.4
20260903214533 93 196 5.0 10.0 0.00 0.00 0.00 52 1000.4
20260903213033 94 165 4.0 10.0 0.00 0.00 0.00 51 1000.4
20260903211512 93 174 5.0 12.0 0.00 0.00 0.00 53 1000.3
20260903210021 93 170 6.0 13.0 0.00 0.00 0.00 52 1000.3
20260903204546 0 0.0 0.0 0.00 0.00 0.00 1000.3
20260903203011 93 165 7.0 12.0 0.00 0.00 0.00 54 1000.2
20260903201539 93 127 6.0 13.0 0.00 0.00 0.00 56 1000.5
20260903200035 92 146 7.0 13.0 0.00 0.00 0.00 54 1000.7
20260903194554 92 154 6.0 11.0 0.00 0.00 0.00 55 1000.8
20260903193043 92 153 6.0 9.0 0.00 0.00 0.00 55 1000.7
20260903191512 90 127 5.0 13.0 0.00 0.00 0.00 55 1000.6
20260903190017 90 140 6.0 11.0 0.00 0.00 0.00 57 1000.7
20260903184612 89 129 6.0 12.0 0.00 0.00 0.00 58 1000.9
20260903183043 88 118 5.0 8.0 0.00 0.00 0.00 59 1001.1
20260903181546 89 143 4.0 8.0 0.00 0.00 0.00 59 1001.2
20260903180006 88 122 5.0 8.0 0.00 0.00 0.00 61 1001.4
20260903174514 88 71 1.0 5.0 0.00 0.00 0.00 60 1001.5
20260903173057 85 138 3.0 6.0 0.00 0.00 0.00 65 1001.8
20260903171556 87 203 3.0 8.0 0.00 0.00 0.00 61 1002.3
20260903170013 87 146 2.0 5.0 0.00 0.00 0.00 62 1002.6
20260903164608 83 128 1.0 3.0 0.00 0.00 0.00 65 1002.6
20260903163103 83 123 4.0 6.0 0.00 0.00 0.00 67 1002.5
20260903161537 83 151 3.0 8.0 0.00 0.00 0.00 68 1002.4
20260903160039 83 155 2.0 5.0 0.00 0.00 0.00 69 1002.3
20260903154552 81 126 2.0 5.0 0.00 0.00 0.00 76 1002.3
20260903153007 80 155 1.0 5.0 0.00 0.00 0.00 78 1002.3
20260903151532 77 128 1.0 4.0 0.00 0.00 0.00 83 1002.4
20260903150011 75 155 2.0 5.0 0.00 0.00 0.00 93 1002.9
20260903144540 71 212 0.0 3.0 0.00 0.00 0.00 95 1003.2
20260903143045 70 108 1.0 5.0 0.00 0.00 0.00 95 1003.0
20260903141606 70 139 4.0 8.0 0.00 0.00 0.00 95 1003.0
20260903140047 69 134 4.0 8.0 0.00 0.00 0.00 95 1002.8
20260903134548 69 132 4.0 9.0 0.00 0.00 0.00 95 1002.8
20260903133022 68 110 2.0 4.0 0.00 0.00 0.00 95 1002.7
20260903131527 68 82 1.0 4.0 0.00 0.00 0.00 95 1002.8
20260903124509 67 356 0.0 1.0 0.00 0.00 0.00 95 1003.4